Olathe, KS

6:00 AM CDT on July 22, 2017 (GMT -0500)
Johnson County Executive

Weather History for KOJC - March, 2013

Change the Weather History Date:

Monday, March 25, 2013

  Actual Average Record
Temperature  
Mean Temperature 26 °F 48 °F  
Max Temperature 32 °F 59 °F 80 °F (1991)
Min Temperature 20 °F 38 °F 12 °F (1955)
Degree Days  
Heating Degree Days 39 17  
Month to date heating degree days 715 530  
Since 1 July heating degree days 4368 4423  
Cooling Degree Days 0 0  
Month to date cooling degree days 0 0  
Year to date cooling degree days 1 0  
Moisture  
Dew Point 22 °F    
Average Humidity 81    
Maximum Humidity 92    
Minimum Humidity 69    
Precipitation  
Precipitation T in 0.07 in 2.01 in (1973)
Month to date precipitation 1.16 2.14  
Year to date precipitation 5.07 4.83  
Sea Level Pressure  
Sea Level Pressure 30.18 in    
Wind  
Wind Speed 12 mph (NW)    
Max Wind Speed 22 mph    
Max Gust Speed 29 mph    
Visibility 6 miles    
Events Snow    
T = Trace of Precipitation, MM = Missing Value Source: NWS Daily Summary

Daily Weather History Graph

Daily Weather History Graph

Search for Another Location

Airport or City:

Trip Planner

Search our weather history database for the weather conditions in past years. The results will help you decide how hot, cold, wet, or windy it might be!

Date:

Astronomy

Mar. 25, 2013 Rise Set
Actual Time 7:14 AM CDT 7:36 PM CDT
Civil Twilight 6:47 AM CDT 8:02 PM CDT
Nautical Twilight 6:16 AM CDT 8:34 PM CDT
Astronomical Twilight 5:44 AM CDT 9:06 PM CDT
Moon 6:09 PM CDT (3/25) 5:57 AM CDT (3/25)
Length of Visible Light 13h 15m
Length of Day
12h 21m
Waxing Gibbous, 96% of the Moon is Illuminated
Mar 25
Waxing Gibbous
Mar 27
Full
Apr 2
Last Quarter
Apr 10
New
Apr 18
First Quarter

Hourly Weather History & Observations

Time (CDT) Temp. Windchill Dew Point Humidity Pressure Visibility Wind Dir Wind Speed Gust Speed Precip Events Conditions
12:53 AM 21.9 °F 11.0 °F 16.0 °F 78% 30.09 in 10.0 mi NW 10.4 mph - N/A   Clear
1:53 AM 21.0 °F 9.3 °F 16.0 °F 81% 30.09 in 10.0 mi NW 11.5 mph - N/A   Clear
2:53 AM 21.0 °F 10.6 °F 16.0 °F 81% 30.08 in 8.0 mi NW 9.2 mph - N/A   Mostly Cloudy
3:53 AM 19.9 °F 8.6 °F 16.0 °F 85% 30.08 in 7.0 mi WNW 10.4 mph - N/A   Mostly Cloudy
4:43 AM 21.2 °F 10.1 °F 17.6 °F 86% 30.05 in 7.0 mi WNW 10.4 mph - 0.00 in   Overcast
4:53 AM 21.9 °F 10.4 °F 18.0 °F 85% 30.09 in 8.0 mi WNW 11.5 mph - 0.00 in   Overcast
5:53 AM 23.0 °F 11.1 °F 19.9 °F 88% 30.10 in 8.0 mi WNW 12.7 mph 19.6 mph N/A   Overcast
6:41 AM 24.8 °F 14.6 °F 19.4 °F 80% 30.07 in 9.0 mi WNW 10.4 mph - N/A   Overcast
6:53 AM 24.1 °F 13.7 °F 21.0 °F 88% 30.11 in 9.0 mi WNW 10.4 mph 18.4 mph N/A   Overcast
7:33 AM 24.8 °F 14.0 °F 21.2 °F 86% 30.09 in 2.5 mi NW 11.5 mph 21.9 mph 0.00 in Snow Light Snow
7:48 AM 24.8 °F 12.9 °F 21.2 °F 86% 30.09 in 3.0 mi NW 13.8 mph 19.6 mph 0.00 in Snow Light Snow
7:53 AM 24.1 °F 13.7 °F 21.9 °F 91% 30.14 in 4.0 mi NW 10.4 mph 19.6 mph 0.00 in   Overcast
8:11 AM 24.8 °F 14.0 °F 21.2 °F 86% 30.10 in 2.5 mi NW 11.5 mph 21.9 mph 0.00 in Snow Light Snow
8:20 AM 24.8 °F 14.0 °F 21.2 °F 86% 30.11 in 3.0 mi NW 11.5 mph 20.7 mph 0.00 in Snow Light Snow
8:28 AM 24.8 °F 13.4 °F 21.2 °F 86% 30.11 in 4.0 mi NW 12.7 mph - 0.00 in   Overcast
8:53 AM 26.1 °F 13.6 °F 23.0 °F 88% 30.17 in 4.0 mi NW 16.1 mph 21.9 mph 0.00 in   Overcast
9:01 AM 26.6 °F 15.2 °F 23.0 °F 86% 30.13 in 2.5 mi NW 13.8 mph - 0.00 in Snow Light Snow
9:08 AM 26.6 °F 14.3 °F 23.0 °F 86% 30.13 in 3.0 mi NW 16.1 mph 21.9 mph 0.00 in Snow Light Snow
9:25 AM 26.6 °F 14.3 °F 21.2 °F 80% 30.13 in 6.0 mi NW 16.1 mph 25.3 mph 0.00 in   Haze
9:53 AM 27.0 °F 14.3 °F 21.9 °F 81% 30.18 in 4.0 mi NW 17.3 mph - 0.00 in Snow Light Snow
10:09 AM 26.6 °F 14.3 °F 23.0 °F 86% 30.15 in 2.5 mi NW 16.1 mph 26.5 mph 0.00 in Snow Light Snow
10:29 AM 26.6 °F 14.7 °F 23.0 °F 86% 30.16 in 3.0 mi NW 15.0 mph 24.2 mph 0.00 in Snow Light Snow
10:53 AM 28.0 °F 15.3 °F 21.9 °F 78% 30.21 in 7.0 mi NW 18.4 mph 24.2 mph 0.00 in   Overcast
11:53 AM 28.9 °F 16.1 °F 19.9 °F 69% 30.22 in 10.0 mi NW 19.6 mph 27.6 mph 0.00 in   Overcast
12:18 PM 28.4 °F 15.1 °F 19.4 °F 69% 30.19 in 10.0 mi NW 20.7 mph 26.5 mph N/A   Overcast
12:53 PM 28.9 °F 19.2 °F 21.0 °F 72% 30.23 in 10.0 mi NW 11.5 mph 20.7 mph N/A   Overcast
1:53 PM 30.0 °F 19.5 °F 21.0 °F 69% 30.23 in 7.0 mi WNW 13.8 mph 21.9 mph 0.00 in   Overcast
2:39 PM 30.2 °F 20.8 °F 23.0 °F 75% 30.20 in 8.0 mi NW 11.5 mph 23.0 mph 0.00 in   Overcast
2:53 PM 30.9 °F 19.4 °F 23.0 °F 72% 30.24 in 10.0 mi NW 17.3 mph 23.0 mph 0.00 in   Overcast
3:53 PM 30.9 °F 21.7 °F 21.9 °F 69% 30.24 in 10.0 mi NW 11.5 mph - N/A   Overcast
4:53 PM 30.9 °F 20.2 °F 23.0 °F 72% 30.25 in 9.0 mi NW 15.0 mph 24.2 mph N/A   Overcast
5:34 PM 30.2 °F 20.2 °F 24.8 °F 80% 30.22 in 4.0 mi NNW 12.7 mph - 0.00 in Snow Light Snow
5:44 PM 30.2 °F 20.8 °F 24.8 °F 80% 30.22 in 2.5 mi NNW 11.5 mph - 0.00 in Snow Light Snow
5:53 PM 30.0 °F 19.5 °F 25.0 °F 82% 30.26 in 1.5 mi NNW 13.8 mph 19.6 mph 0.00 in Snow Light Snow
6:15 PM 30.2 °F 21.3 °F 26.6 °F 86% 30.23 in 3.0 mi NNW 10.4 mph 16.1 mph 0.00 in Snow Light Snow
6:25 PM 30.2 °F 21.3 °F 24.8 °F 80% 30.23 in 2.0 mi NW 10.4 mph - 0.00 in Snow Light Snow
6:53 PM 28.9 °F 19.2 °F 26.1 °F 89% 30.28 in 2.0 mi NNW 11.5 mph 20.7 mph 0.00 in Snow Light Snow
7:41 PM 28.4 °F 18.5 °F 26.6 °F 93% 30.26 in 5.0 mi NW 11.5 mph - 0.00 in   Overcast
7:53 PM 28.0 °F 18.6 °F 26.1 °F 92% 30.31 in 10.0 mi NW 10.4 mph - 0.00 in   Overcast
8:53 PM 28.0 °F 19.3 °F 24.1 °F 85% 30.32 in 10.0 mi NW 9.2 mph - N/A   Clear
9:53 PM 28.0 °F 20.0 °F 24.1 °F 85% 30.34 in 10.0 mi NW 8.1 mph - N/A   Clear
10:53 PM 28.0 °F 20.8 °F 23.0 °F 81% 30.35 in 10.0 mi NW 6.9 mph - N/A   Partly Cloudy
11:53 PM 27.0 °F 18.0 °F 21.0 °F 78% 30.36 in 10.0 mi NW 9.2 mph - N/A   Clear